Current Version              Previous Version:    01  02  03  04  05  06  07  08  09  10  11  12  13  14  15  16  17  18  19  20  21  22  23  24  25  26  27  28  29  30  
   31  32  33  34  35  36  37  38  39  40  41  42  43  44  45  46  47  48  49  50  51  52  53  54  55  56  57  58  59  60  

[Printable]
154
ASUS44 KEWX 271810
RWRTX
SOUTH TEXAS REGIONAL WEATHER ROUNDUP
NATIONAL WEATHER SERVICE AUSTIN/SAN ANTONIO TX
100 PM CDT WED AUG 27 2014

NOTE: "FAIR" INDICATED FEW OR NO CLOUDS BELOW 12,000 FEET WITH NO
SIGNIFICANT WEATHER AND/OR OBSTRUCTIONS TO VISIBILITY.

* - THESE STATIONS ARE NOT NWS OR FAA STATIONS...AND ARE NOT SUBJECT
    TO NWS AND FAA QUALITY CONTROL.

TXZ171-172-183>190-271900-
TEXAS HILL COUNTRY AND EDWARDS PLATEAU

CITY           SKY/WX    TMP DP  RH WIND       PRES   REMARKS
JUNCTION       FAIR      88  67  49 SE3       30.09F HX  91
6HR MIN TEMP:  71; 6HR MAX TEMP:  90;

*LLANO         FAIR      93  66  40 SE6       30.08F HX  96
BURNET         FAIR      91  65  41 E10       30.08F HX  93
6HR MIN TEMP:  73; 6HR MAX TEMP:  91;

*HORSESHOE BAY PTSUNNY   90  65  43 E5        30.06F HX  92
6HR MIN TEMP:  72; 6HR MAX TEMP:  90;

*KERRVILLE     FAIR      89  69  50 E6        30.08F HX  93
6HR MIN TEMP:  72; 6HR MAX TEMP:  89;

*FREDERICKSBRG FAIR      89  63  41 CALM      30.08F HX  90
6HR MIN TEMP:  69; 6HR MAX TEMP:  90;

*ROCKSPRINGS   FAIR      88  66  48 E3        30.14F HX  90
*BOERNE STAGE  FAIR      90  61  37 E7        30.07F
*CASTROVILLE   FAIR      92  63  37 E5        30.04F HX  93
HONDO            N/A    N/A N/A N/A MISG      30.05F
*UVALDE        FAIR      90  68  48 CALM      30.04F HX  94
6HR MIN TEMP:  75; 6HR MAX TEMP:  93;

DEL RIO        FAIR      93  67  42 S8        30.01F HX  96
6HR MIN TEMP:  80; 6HR MAX TEMP:  93;

LAUGHLIN AFB   FAIR      91  68  45 SE9       30.02F HX  95
6HR MIN TEMP:  76; 6HR MAX TEMP:  92;

CARRIZO SPRGS  FAIR      93  64  38 CALM      30.00F HX  95
$$

TXZ173-191>194-202-209-217>225-228-271900-
CENTRAL AND SOUTH CENTRAL TEXAS

CITY           SKY/WX    TMP DP  RH WIND       PRES   REMARKS
GEORGETOWN     PTSUNNY   91  64  40 NE13G18   30.04F HX  93
6HR MIN TEMP:  72; 6HR MAX TEMP:  93;

AUSTIN/BERGSTM PTSUNNY   91  67  44 NE5       30.02F HX  94
6HR MIN TEMP:  71; 6HR MAX TEMP:  92;

AUSTIN/MABRY   PTSUNNY   89  67  47 E8        30.04F HX  92
6HR MIN TEMP:  76; 6HR MAX TEMP:  93;

*AUSTIN/EXEC   FAIR      90  66  45 NE6G16    30.04F HX  92
*LAGO VISTA    PTSUNNY   87  66  49 NE5       30.07F HX  90
6HR MIN TEMP:  76; 6HR MAX TEMP:  90;

SAN MARCOS     PTSUNNY   91  66  43 NE10      30.04F HX  94
NEW BRAUNFELS  FAIR      93  65  39 NE13      30.01F HX  95
6HR MIN TEMP:  73; 6HR MAX TEMP:  94;

RANDOLPH AFB   FAIR      92  67  43 E13       30.03F HX  95
6HR MIN TEMP:  74; 6HR MAX TEMP:  92;

PT SAN ANTONIO FAIR      92  66  42 E8        30.01F HX  95
6HR MIN TEMP:  75; 6HR MAX TEMP:  92;

SAN ANTONIO    PTSUNNY   92  67  43 E6G17     30.03F HX  95
6HR MIN TEMP:  76; 6HR MAX TEMP:  94;

STINSON FIELD  PTSUNNY   93  67  42 N8        30.00F HX  96
6HR MIN TEMP:  76; 6HR MAX TEMP:  93;

*PLEASANTON    FAIR      95  63  34 NE10G18   30.01F HX  96
6HR MIN TEMP:  73; 6HR MAX TEMP:  95;

*LA GRANGE     FAIR      94  66  39 E10       29.99F HX  97
6HR MIN TEMP:  75; 6HR MAX TEMP:  94;

*GIDDINGS      FAIR      91  62  37 E9        30.06S HX  91
6HR MIN TEMP:  74; 6HR MAX TEMP:  92;

*GONZALES      FAIR      94  65  38 NE8       29.99F HX  96
6HR MIN TEMP:  75; 6HR MAX TEMP:  94;

$$

TXZ163>164-176>182-195>201-210>213-226-227-235-271900-
SOUTHEAST TEXAS

CITY           SKY/WX    TMP DP  RH WIND       PRES   REMARKS
COLLEGE STN    FAIR      92  61  35 VRB7G17   30.02F HX  92
6HR MIN TEMP:  74; 6HR MAX TEMP:  93;

*BRYAN         FAIR      92  62  36 NE7       30.02F HX  92
*CALDWELL        N/A    N/A N/A N/A MISG        N/A
*CROCKETT      FAIR      91  70  49 SE3       30.06F HX  97
*BRENHAM       FAIR      91  66  43 NE7       30.02F HX  93
6HR MIN TEMP:  75; 6HR MAX TEMP:  93;

HUNTSVILLE     FAIR      90  66  45 E5        30.02F HX  92
6HR MIN TEMP:  71; 6HR MAX TEMP:  91;

CONROE         FAIR      92  65  40 VRB6      30.01F HX  94
6HR MIN TEMP:  70; 6HR MAX TEMP:  93;

HOUSTON BUSH   PTSUNNY   93  70  46 E8        29.99F HX  99
HOUSTON HOBBY  FAIR      90  72  55 E15G24    29.98F HX  97
6HR MIN TEMP:  79; 6HR MAX TEMP:  90;

*HOUSTON SW AP PTSUNNY   89  70  52 NE9G16    29.98F HX  94
6HR MIN TEMP:  76; 6HR MAX TEMP:  91;

PEARLAND       PTSUNNY   91  71  51 E16G28    29.99F HX  97
6HR MIN TEMP:  79; 6HR MAX TEMP:  91;

HOUSTON HOOKS  FAIR      92  68  45 NE9       30.00F HX  96
6HR MIN TEMP:  74; 6HR MAX TEMP:  92;

ELLINGTON FLD  PTSUNNY   90  72  55 E14       29.99F HX  96
SUGAR LAND     PTSUNNY   91  70  49 NE7       29.98F HX  96
6HR MIN TEMP:  75; 6HR MAX TEMP:  92;

*HOUSTON EXEC  NOT AVBL
*CLEVELAND MUN FAIR      91  73  56 E6        30.02S HX  99
6HR MIN TEMP:  72; 6HR MAX TEMP:  91;

*WHARTON       PTSUNNY   90  67  47 NE9       29.98F HX  93
6HR MIN TEMP:  73; 6HR MAX TEMP:  92;

$$

TXZ214>216-236>238-271900-
THE UPPER TEXAS COAST

CITY           SKY/WX    TMP DP  RH WIND       PRES   REMARKS
*ORANGE        FAIR      88  72  59 E9        30.01F HX  94
6HR MIN TEMP:  74; 6HR MAX TEMP:  89;

PORT ARTHUR    PTSUNNY   89  73  59 E16G22    29.99F HX  97
6HR MIN TEMP:  77; 6HR MAX TEMP:  91;

GALVESTON      PTSUNNY   84  78  82 NE13      29.98F HX  95
6HR MIN TEMP:  79; 6HR MAX TEMP:  85; 6HR PCP:  0.11;

ANGLETON       LGT RAIN  80  74  81 E12       29.99S
6HR MIN TEMP:  77; 6HR MAX TEMP:  88; 6HR PCP:  0.02;

*BAY CITY      LGT RAIN  81  81 100 E9        29.98S HX  91
PALACIOS       PTSUNNY   86  75  69 E20G26    29.98R HX  95
6HR MIN TEMP:  76; 6HR MAX TEMP:  92;

$$

TXZ229>234-239>247-271900-
TEXAS COASTAL BEND AND RIO GRANDE PLAINS

CITY           SKY/WX    TMP DP  RH WIND       PRES   REMARKS
VICTORIA       FAIR      94  69  44 NE13      29.97F HX  99
6HR MIN TEMP:  76; 6HR MAX TEMP:  97;

*BEEVILLE      FAIR      96  65  35 NE12      29.98F HX  98
6HR MIN TEMP:  74; 6HR MAX TEMP:  96;

ROCKPORT       FAIR      95  71  45 E14       29.95F HX 102
6HR MIN TEMP:  79; 6HR MAX TEMP:  95; 6HR PCP: TRACE;

*PORT ARANSAS  FAIR      87  76  69 E13G20    29.96F HX  98
6HR MIN TEMP:  80; 6HR MAX TEMP:  89; 6HR PCP:  0.02;

*PORT LAVACA   PTSUNNY   90  72  56 NE13      29.96F HX  97
6HR MIN TEMP:  75; 6HR MAX TEMP:  91;

*INGLESIDE     PTSUNNY   87  74  64 N12G17    29.95F HX  96
CORPUS CHRISTI PTSUNNY   94  69  44 NE12      29.95F HX  99
6HR MIN TEMP:  78; 6HR MAX TEMP:  95;

CORPUS NAS     PTSUNNY   93  75  55 NE17      29.96F HX 104
6HR MIN TEMP:  82; 6HR MAX TEMP:  93;

*ROBSTOWN      FAIR      96  67  38 NE9G16    29.96F HX  99
6HR MIN TEMP:  78; 6HR MAX TEMP:  96;

ALICE          FAIR      97  68  38 E15       29.96F HX 102
6HR MIN TEMP:  75; 6HR MAX TEMP:  97;

KINGSVILLE NAS PTSUNNY   96  70  42 N14       29.95F HX 102
6HR MIN TEMP:  75; 6HR MAX TEMP:  97;

COTULLA        FAIR      93  65  39 E7        30.00F HX  95
6HR MIN TEMP:  77; 6HR MAX TEMP:  95;

*FAITH RANCH   FAIR      91  66  43 CALM      30.02F HX  94
LAREDO         FAIR      95  67  39 VRB7      30.01F HX  99
6HR MIN TEMP:  79; 6HR MAX TEMP:  96;

$$

TXZ248>255-271900-
DEEP SOUTH TEXAS

CITY           SKY/WX    TMP DP  RH WIND       PRES   REMARKS
BROWNSVILLE    FAIR      96  72  45 N9        29.93F HX 104
6HR MIN TEMP:  78; 6HR MAX TEMP:  96;

PORT ISABEL    PTSUNNY   91  73  55 N16       29.94F HX  99
6HR MIN TEMP:  79; 6HR MAX TEMP:  93;

*SOUTH PADRE   FAIR      90  77  66 N12       29.94F HX 102
HARLINGEN      CLOUDY    93  71  48 N10       29.93F HX 100
6HR MIN TEMP:  75; 6HR MAX TEMP:  95;

*HEBBRONVILLE  FAIR      92  63  38 N14G20    29.99F HX  93
MCALLEN        FAIR      97  68  38 NE7G17    29.95F HX 102
6HR MIN TEMP:  80; 6HR MAX TEMP:  98;